Location: Unspecified
(22.6800°N, 112.2000°E)
Time: 07:15:00
(UTC+08:00)

S-56A Canister/Altair - Pass Details

Date: 31 July 2021
Orbit: 632 x 2500 km, 38.9° (Epoch: 26 September)

Event Time Altitude Azimuth Distance (km) Brightness Sun altitude
Rises 15:41:36 0° 258° (WSW) 5,333 12.5 46.8°
Reaches altitude 10° 15:44:54 10° 263° (W) 4,544 12.5 46.1°
Maximum altitude 15:57:55 55° 338° (NNW) 2,807 11.3 43.1°
Drops below altitude 10° 16:12:41 10° 54° (NE) 5,083 11.4 39.7°
Sets 16:16:40 0° 59° (ENE) 5,982 11.7 38.8°
